Weather History for Cut Bank, MT

Change the Weather History Date:

Wednesday, May 8, 2013

  Actual Average Record
Temperature  
Mean Temperature 52 °F 48 °F  
Max Temperature 73 °F 60 °F 82 °F (1987)
Min Temperature 31 °F 35 °F 21 °F (1909)
Degree Days  
Heating Degree Days 13 17  
Month to date heating degree days 143 148  
Since 1 July heating degree days 7774 7968  
Cooling Degree Days 0 0  
Month to date cooling degree days 0 0  
Year to date cooling degree days 0 0  
Growing Degree Days 2 (Base 50)    
Moisture  
Dew Point 30 °F    
Average Humidity 51    
Maximum Humidity 78    
Minimum Humidity 24    
Precipitation  
Precipitation 0.00 in 0.04 in 1.34 in (1948)
Month to date precipitation 0.03 0.31  
Year to date precipitation 2.05 2.00  
Snow  
Snow 0.00 in - - ()
Snow Depth 0.00 in    
Sea Level Pressure  
Sea Level Pressure 30.12 in    
Wind  
Wind Speed 9 mph (SE)    
Max Wind Speed 20 mph    
Max Gust Speed 25 mph    
Visibility 10 miles    
Events      
T = Trace of Precipitation, MM = Missing Value Source: NWS Daily Summary

Daily Weather History Graph

Daily Weather History Graph

Search for Another Location

Airport:

Trip Planner

Search our weather history database for the weather conditions in past years. The results will help you decide how hot, cold, wet, or windy it might be!

Date:

Astronomy

May. 08, 2013 Rise Set
Actual Time 5:58 AM MDT 8:54 PM MDT
Civil Twilight 5:21 AM MDT 9:31 PM MDT
Nautical Twilight 4:34 AM MDT 10:18 PM MDT
Astronomical Twilight 3:37 AM MDT 11:16 PM MDT
Moon 5:14 AM MDT (5/8) 7:52 PM MDT (5/8)
Length of Visible Light 16h 09m
Length of Day
14h 56m
Waning Crescent, 2% of the Moon is Illuminated
May 8
Waning Crescent
May 9
New
May 17
First Quarter
May 24
Full
May 31
Last Quarter

Hourly Weather History & Observations

Time (MDT) Temp. Windchill Dew Point Humidity Pressure Visibility Wind Dir Wind Speed Gust Speed Precip Events Conditions
12:56 AM 42.1 °F - 28.0 °F 58% 30.15 in 10.0 mi Calm Calm - N/A   Clear
1:56 AM 37.0 °F 31.6 °F 28.0 °F 70% 30.15 in 10.0 mi WNW 6.9 mph - N/A   Clear
2:56 AM 36.0 °F 31.1 °F 28.0 °F 73% 30.15 in 10.0 mi WNW 5.8 mph - N/A   Clear
3:56 AM 35.1 °F - 28.0 °F 76% 30.17 in 10.0 mi Calm Calm - N/A   Clear
4:56 AM 32.0 °F 25.6 °F 27.0 °F 82% 30.17 in 10.0 mi NNE 6.9 mph - N/A   Clear
5:56 AM 32.0 °F 27.5 °F 26.1 °F 79% 30.17 in 10.0 mi ENE 4.6 mph - N/A   Clear
6:56 AM 33.1 °F 28.7 °F 27.0 °F 78% 30.17 in 10.0 mi SSE 4.6 mph - N/A   Clear
7:56 AM 43.0 °F 40.3 °F 30.0 °F 60% 30.17 in 10.0 mi SSE 4.6 mph - N/A   Clear
8:56 AM 48.0 °F - 30.9 °F 52% 30.17 in 10.0 mi SE 9.2 mph - N/A   Clear
9:56 AM 50.0 °F - 30.0 °F 46% 30.18 in 10.0 mi SE 8.1 mph - N/A   Clear
10:56 AM 55.0 °F - 28.9 °F 37% 30.17 in 10.0 mi SE 9.2 mph - N/A   Clear
11:56 AM 59.0 °F - 25.0 °F 27% 30.14 in 10.0 mi SE 15.0 mph - N/A   Partly Cloudy
12:56 PM 63.0 °F - 30.0 °F 29% 30.11 in 10.0 mi SE 17.3 mph 24.2 mph N/A   Clear
1:56 PM 68.0 °F - 30.9 °F 25% 30.09 in 10.0 mi South 13.8 mph 23.0 mph N/A   Clear
2:56 PM 70.0 °F - 33.1 °F 26% 30.08 in 10.0 mi South 11.5 mph 23.0 mph N/A   Clear
3:56 PM 71.1 °F - 33.1 °F 25% 30.06 in 10.0 mi South 8.1 mph - N/A   Clear
4:56 PM 71.1 °F - 33.1 °F 25% 30.05 in 10.0 mi SSE 6.9 mph - N/A   Clear
5:56 PM 71.1 °F - 32.0 °F 24% 30.04 in 10.0 mi SE 5.8 mph 18.4 mph N/A   Clear
6:56 PM 68.0 °F - 32.0 °F 26% 30.05 in 10.0 mi East 10.4 mph - N/A   Mostly Cloudy
7:56 PM 66.0 °F - 32.0 °F 28% 30.04 in 10.0 mi East 11.5 mph - N/A   Mostly Cloudy
8:56 PM 62.1 °F - 30.0 °F 30% 30.05 in 10.0 mi East 13.8 mph - N/A   Clear
9:56 PM 57.0 °F - 28.9 °F 34% 30.07 in 10.0 mi ESE 9.2 mph - N/A   Clear
10:56 PM 55.0 °F - 30.0 °F 38% 30.08 in 10.0 mi ESE 15.0 mph - N/A   Clear
11:56 PM 51.1 °F - 30.0 °F 44% 30.09 in 10.0 mi ESE 10.4 mph - N/A   Clear